Location: Borderline Observatory
(42.7345°N, 72.8696°W)
Time: 02:16:34
(UTC-04:00)

Daily predictions for brighter satellites

Satellite Brightness Start Highest point End
(mag) Time Altitude Azimuth Time Altitude Azimuth Time Altitude Azimuth
CZ-2C R/B 4.1 00:03:02 10° NE 00:06:36 24° E 00:06:36 24° E
Landsat 5 4.5 00:08:17 41° NE 00:08:17 41° NE 00:11:51 10° N
Cosmos 1892 Rocket 4.1 00:05:00 10° N 00:08:33 52° NNE 00:08:33 52° NNE
Cosmos 2123 Rocket 3.8 00:06:24 10° N 00:12:43 80° E 00:13:30 68° SE
Cosmos 1315 Rocket 4.2 00:14:52 35° NNE 00:14:52 35° NNE 00:17:17 10° NNE
Cosmos 1934 Rocket 3.8 00:15:31 71° SSW 00:16:15 85° W 00:22:20 10° N
Lacrosse 5 rocket 3.8 00:22:12 13° NE 00:22:12 13° NE 00:22:42 10° NE
H-2A R/B 3.2 00:15:48 10° NNE 00:19:26 52° NE 00:19:26 52° NE
Cosmos 1833 Rocket 4.0 00:17:52 10° NW 00:22:31 27° WSW 00:22:38 27° WSW
Cosmos 1503 Rocket 3.9 00:22:11 10° NNW 00:27:16 83° NNE 00:27:16 83° NNE
ALOS 2 3.1 00:28:27 57° NNW 00:28:27 57° NNW 00:32:01 10° NNW
Meteor 1-11 Rocket 4.3 00:27:55 47° WSW 00:28:57 53° WNW 00:34:39 10° N
Meteor 2-4 Rocket 3.6 00:26:25 10° NNW 00:31:49 70° W 00:31:50 70° W
Cosmos 1943 Rocket 3.5 00:33:47 26° E 00:33:47 26° E 00:37:33 10° NE
Meteor 2-16 Rocket 4.4 00:33:34 63° SW 00:34:20 71° W 00:40:28 10° N
CZ-4B R/B 3.9 00:38:39 20° NNW 00:38:39 20° NNW 00:39:46 10° NNW
Cosmos 2082 Rocket 4.1 00:33:38 10° WNW 00:37:03 16° W 00:37:16 16° W
Gbstr 26 Del rocket 4.2 00:32:59 10° NW 00:35:48 36° NW 00:35:48 36° NW
Cosmos 1633 4.4 00:39:00 30° NNW 00:39:00 30° NNW 00:41:16 10° N
Cosmos 1455 Rocket 3.7 00:40:43 52° NNE 00:40:43 52° NNE 00:44:03 10° N
Cosmos 2263 4.3 00:45:24 60° E 00:45:24 60° E 00:50:33 10° NNE
Cosmos 1346 Rocket 4.2 00:41:21 10° N 00:43:54 35° NNE 00:43:54 35° NNE
Cosmos 1536 4.4 00:47:24 30° NW 00:47:24 30° NW 00:50:12 10° N
Gblst 52 Del rocket 4.5 00:47:31 70° SSE 00:47:53 71° SE 00:54:13 10° ENE
SeaSat 1 4.1 00:50:35 23° E 00:52:13 28° NE 00:56:24 10° N
ISS -0.5 00:57:09 19° N 00:57:09 19° N 00:59:14 10° NE
NOSS 3-1 (A) 3.9 00:50:46 10° NW 00:58:22 75° WSW 01:00:07 58° S
Cosmos 1818 4.2 01:00:13 44° E 01:00:13 44° E 01:04:34 10° NE
Cosmos 1975 4.1 01:02:19 38° NNE 01:02:19 38° NNE 01:04:58 10° NNE
Cosmos 968 Rocket 4.4 00:57:53 10° N 01:02:49 39° ENE 01:03:35 37° E
MOS 1-B Rocket 4.0 01:04:59 63° WSW 01:05:21 64° W 01:11:54 10° NNW
Cosmos 1447 Rocket 4.4 01:02:54 10° NNW 01:08:59 66° W 01:09:25 64° WSW
GP-B 3.6 01:08:07 10° N 01:11:41 57° N 01:11:41 57° N
Lacrosse 5 2.1 01:14:34 62° NW 01:14:43 63° NW 01:19:48 10° NE
Cosmos 2100 Rocket 3.9 01:18:44 72° S 01:19:28 89° W 01:25:53 10° N
ATLAS 2AS CENTAUR R/B 3.2 01:11:50 10° NNW 01:19:58 68° NE 01:24:03 31° SE
Cosmos 2061 Rocket 3.9 01:24:53 71° SSW 01:25:41 88° W 01:32:09 10° N
Cosmos 2369 Rocket 2.9 01:28:03 40° W 01:29:04 44° WNW 01:34:27 10° NNE
Cosmos 1743 4.3 01:31:15 32° NE 01:31:15 32° NE 01:33:43 10° NNE
Cosmos 1992 Rocket 4.4 01:32:45 52° WNW 01:32:54 53° WNW 01:38:00 10° N
Cosmos 2219 3.8 01:29:00 10° NNW 01:34:31 51° ENE 01:36:02 40° ESE
Cosmos 1066 Rocket 3.9 01:31:13 10° N 01:36:36 90° NW 01:36:37 90° SSW
BREEZE-M DEB (TANK) 4.0 01:27:32 10° WNW 01:37:22 48° N 01:40:34 10° E
SL-8 R/B 4.0 01:35:30 10° WNW 01:40:17 64° NNE 01:41:13 51° ENE
Cosmos 1953 Rocket 4.3 01:36:38 10° N 01:40:24 48° NE 01:40:24 48° NE
Cosmos 1802 Rocket 3.9 01:41:25 67° SW 01:42:10 76° W 01:48:27 10° N
Cosmos 2016 Rocket 3.8 01:41:42 72° SSW 01:42:24 88° W 01:48:33 10° N
Cosmos 1459 Rocket 4.0 01:43:50 57° WSW 01:44:33 61° W 01:50:36 10° N
Cosmos 1340 4.4 01:43:56 10° NNE 01:46:54 28° ENE 01:46:54 28° ENE
CZ-2C R/B 3.2 01:42:49 10° N 01:47:42 43° WNW 01:48:08 42° W
Cosmos 44 Rocket 3.6 01:42:46 10° NNW 01:47:52 64° NE 01:48:28 58° E
Cosmos 1726 Rocket 4.1 01:53:12 54° ENE 01:53:12 54° ENE 01:56:53 10° NNE
Cosmos 1825 Rocket 3.9 01:48:51 10° N 01:52:37 63° NNW 01:52:37 63° NNW
CZ-2C R/B 3.6 01:54:50 43° WNW 01:54:50 43° WNW 01:58:59 10° NNW
Lacrosse 5 rocket 3.2 01:57:54 20° NW 01:58:30 21° NNW 02:01:24 10° NNE
Cosmos 2173 Rocket 4.5 02:00:47 43° WSW 02:01:50 47° WNW 02:07:57 10° N
Cosmos 1864 Rocket 4.4 02:01:01 63° S 02:02:09 86° E 02:08:26 10° N
Cosmos 1666 3.8 02:05:23 41° NE 02:05:23 41° NE 02:08:16 10° NNE
Cosmos 1758 Rocket 3.7 02:00:46 10° N 02:04:57 74° NNE 02:04:57 74° NNE
Cosmos 1656 Rocket 3.5 02:12:47 70° SSW 02:13:28 90° W 02:19:09 10° NNE
Cosmos 1943 Rocket 2.8 02:15:17 38° W 02:16:23 43° WNW 02:21:44 10° NNE
Cosmos 1725 Rocket 3.9 02:15:21 59° SW 02:16:29 73° W 02:22:41 10° N
SL-08 R/B 4.0 02:18:30 39° ESE 02:19:43 50° ENE 02:24:14 10° N
NPP 4.2 02:14:47 10° NNE 02:20:02 50° E 02:21:09 43° SE
Cosmos 1816 Rocket 4.4 02:14:17 10° N 02:20:35 87° W 02:22:12 54° S
Tsikada Rocket 4.0 02:16:01 10° NNW 02:22:14 67° W 02:23:29 55° SW
Landsat 4 4.2 02:23:59 61° NE 02:23:59 61° NE 02:27:28 10° N
Cosmos 1570 Rocket 3.9 02:26:24 66° S 02:27:08 80° ESE 02:32:30 10° NNE
Resurs 1-4 Rocket 4.4 02:24:52 10° NE 02:28:03 16° E 02:31:12 10° SE
SeaSat 1 3.1 02:30:22 40° W 02:30:22 40° W 02:34:17 10° NW
SL-16 R/B 4.2 02:24:34 10° ESE 02:29:46 29° ENE 02:34:58 10° N
BREEZE-M DEB (TANK) 3.0 02:31:08 88° SSW 02:31:10 89° SSE 02:34:37 10° ENE
ATLAS CENTAUR R/B 3.9 02:32:50 14° SE 02:34:01 16° ESE 02:36:58 10° ENE
ISS -0.4 02:31:39 10° NW 02:34:03 19° N 02:36:27 10° ENE
Cosmos 44 3.4 02:31:32 10° NNW 02:36:46 76° NE 02:38:44 37° SE
Cosmos 2098 Rocket 4.5 02:37:31 42° SW 02:39:23 55° WNW 02:46:41 10° N
BREEZE-M DEB (TANK) 3.1 02:40:43 36° NE 02:40:43 36° NE 02:42:36 10° ENE
ADEOS 4.4 02:36:02 10° NNE 02:41:00 43° E 02:42:46 32° SE
PSLV R/B 4.1 02:39:21 10° N 02:43:34 46° WNW 02:43:46 46° W
USA 161 3.8 02:44:40 21° E 02:45:01 21° ENE 02:47:18 10° NNE
Cosmos 2228 3.1 02:49:18 61° W 02:49:23 62° W 02:53:40 10° N
Geosat 4.0 02:44:34 10° NNE 02:49:38 77° ESE 02:50:45 54° S
NOSS 3-3 (A) 4.1 02:47:44 42° SW 02:49:58 73° NW 02:56:44 10° NNE
NOSS 3-3 (C) 4.1 02:47:50 43° SW 02:50:03 73° NW 02:56:50 10° NNE
ERS-2 2.8 02:47:22 10° NNE 02:50:59 46° E 02:51:12 46° ESE
GENESIS II 4.2 02:53:24 78° SSE 02:53:30 79° SE 02:57:40 10° NE
Cosmos 1707 4.2 02:49:58 10° N 02:53:36 34° ENE 02:55:20 23° SE
Meteor 1-15 Rocket 4.4 02:55:35 46° SW 02:57:11 64° WNW 03:03:03 10° N
ARIANE 5 R/B 3.6 02:52:42 10° NNE 02:57:27 37° E 03:00:01 23° SSE
Lacrosse 5 4.1 02:54:42 10° WNW 02:58:34 21° NNW 03:02:26 10° NNE
Meteor 2-5 Rocket 3.9 03:00:52 10° N 03:06:45 74° E 03:10:44 22° SSE
Cosmos 2058 Rocket 4.3 03:07:03 28° W 03:07:18 28° WNW 03:11:08 10° NNW
Spot 4 Rocket 4.2 03:03:12 10° NNE 03:08:22 67° ESE 03:10:31 35° S
Cosmos 2208 Rocket 4.4 03:07:38 38° WSW 03:09:02 48° WNW 03:14:08 10° N
ATLAS 2AS CENTAUR R/B 3.7 03:03:42 10° NW 03:10:25 30° WSW 03:11:23 29° WSW
Cosmos 1812 Rocket 3.5 03:10:24 54° SSW 03:11:25 82° W 03:15:55 10° N
Cosmos 2082 3.7 03:07:29 10° NNW 03:13:09 82° ENE 03:18:35 11° SSE
Cosmos 1697 Rocket 4.1 03:13:17 16° SSE 03:16:51 31° ESE 03:21:45 10° NE
Cosmos 2219 4.4 03:13:55 10° NW 03:17:54 23° W 03:17:54 23° W
CZ-2D R/B 3.0 03:13:12 10° NNE 03:18:28 45° E 03:22:04 19° SSE
Cosmos 2298 Rocket 4.0 03:13:55 10° NNW 03:19:15 89° ENE 03:23:12 18° SSE
IRS-1D 4.0 03:14:33 10° NNE 03:19:25 54° E 03:22:07 25° SSE
Cosmos 1464 Rocket 3.9 03:16:25 33° SSW 03:19:28 82° W 03:25:50 10° N
IRS-1C 4.1 03:15:29 10° N 03:20:49 70° WNW 03:22:56 37° SW
CBERS-1 4.3 03:16:31 10° N 03:21:32 54° WNW 03:23:18 37° SW
Cosmos 1980 Rocket 4.2 03:19:56 10° SSE 03:24:03 21° E 03:28:12 10° NE
Cosmos 2227 Rocket 2.1 03:20:13 10° NNW 03:25:55 76° WSW 03:30:44 15° SSE
Cosmos 1814 Rocket 4.2 03:26:04 29° S 03:28:48 67° ESE 03:34:07 10° NNE
AQUA 4.5 03:27:50 10° N 03:32:18 41° WNW 03:33:51 31° WSW
UNK 4.4 03:27:42 10° WNW 03:32:34 29° NNW 03:34:52 10° NE
Cosmos 972 Rocket 4.4 03:31:01 10° NNW 03:35:36 40° W 03:37:04 32° SW
Okean 3 Rocket 3.4 03:33:22 10° N 03:37:47 78° W 03:40:07 27° S
Cosmos 2278 3.8 03:38:18 30° SW 03:41:06 62° WNW 03:46:44 10° NNE
Cosmos 2369 3.7 03:38:38 30° SW 03:41:30 70° WNW 03:47:11 10° NNE
Abrixas 4.5 03:41:07 10° NW 03:43:52 29° N 03:46:36 10° ENE
Cosmos 2297 Rocket 2.1 03:42:10 10° NNW 03:47:48 71° WSW 03:53:25 10° SSE
Cosmos 1766 3.5 03:46:03 23° S 03:48:23 68° E 03:52:20 10° NNE
Cosmos 405 Rocket 3.3 03:45:36 10° NNW 03:49:26 40° W 03:50:35 32° SW
GEOS 3 Rocket 3.6 03:46:08 10° SSE 03:51:17 59° WSW 03:56:24 10° NW
Meteor 2-12 Rocket 4.4 03:48:20 18° S 03:52:58 90° ESE 03:59:04 10° N
Cosmos 468 Rocket 4.1 03:54:33 25° SW 03:57:27 59° WNW 04:02:35 10° NNE
Meteor 1-22 Rocket 4.4 03:53:30 18° S 03:58:08 85° WNW 04:04:18 10° N
Cosmos 2150 Rocket 4.3 03:53:16 10° NNW 03:58:15 46° WSW 04:02:06 16° S
Cosmos 990 Rocket 4.0 03:53:08 10° NNW 03:58:26 89° WSW 04:03:41 10° SSE
UNKNOWN OBJECT B 2.9 03:55:21 10° NNE 03:59:18 75° E 04:01:57 19° S
Meteor 1-24 Rocket 3.7 03:55:35 10° NNW 04:01:13 69° W 04:07:02 10° S
CZ-2D R/B 4.0 03:57:08 10° NNE 04:01:24 60° E 04:05:18 13° S
Cosmos 1953 3.2 04:00:55 10° SSE 04:04:47 49° E 04:08:43 10° NNE
NOSS 2-1 (D) 3.8 04:05:09 24° WSW 04:07:21 54° NW 04:11:49 10° NNE
Resurs 1-4 Rocket 2.2 04:03:07 10° N 04:08:21 66° WNW 04:12:18 18° SSW
NOSS 2-1 (C) 3.8 04:06:27 23° WSW 04:08:42 54° NW 04:13:10 10° NNE
ISS -2.4 04:07:51 10° NW 04:11:02 50° NNE 04:14:12 10° ESE
NOSS 7 (E) 4.5 04:09:06 24° SSW 04:11:02 75° SE 04:14:30 10° NE
EO 1 Del DPAF 3.6 04:09:56 18° SSW 04:12:34 46° W 04:16:19 10° NNW
ATLAS CENTAUR R/B 1.9 04:09:11 21° SW 04:12:35 75° NW 04:17:36 10° NNE
SL-16 R/B 2.8 04:07:19 11° S 04:13:07 48° W 04:19:05 10° NNW
Cosmos 1898 Rocket 4.3 04:10:14 10° NW 04:14:58 33° W 04:18:52 14° SSW
USA 161 3.6 04:15:50 14° W 04:15:50 14° W 04:17:05 10° WNW
Cosmos 1378 3.2 04:12:28 10° NNW 04:16:12 57° W 04:19:32 12° S
Okean O Rocket 2.0 04:13:29 10° NNE 04:17:51 62° E 04:22:13 10° S
CZ-3 R/B 4.3 04:01:28 16° SW 04:19:52 32° S 04:28:12 10° ESE
Cosmos 1125 Rocket 4.1 04:16:07 10° NNW 04:21:19 62° ENE 04:26:26 10° SSE
CZ-4B R/B 3.8 04:18:06 10° NNE 04:23:36 58° E 04:28:58 10° S
NOSS 2-1 (E) 4.2 04:21:03 17° WSW 04:23:50 43° NW 04:28:20 10° NNE
Cosmos 1805 3.4 04:19:57 10° S 04:23:50 75° E 04:27:46 10° NNE
Cosmos 1743 Rocket 3.9 04:19:47 10° N 04:24:07 69° E 04:28:27 10° SSE
ERS-2 4.4 04:22:32 10° NNW 04:24:23 13° WNW 04:26:02 11° W
Cosmos 1655 Rocket 4.4 04:20:26 10° N 04:26:51 70° E 04:33:13 10° SSE
Cosmos 1441 Rocket 3.5 04:24:37 10° NNW 04:28:29 51° W 04:32:21 10° S
Cosmos 1076 Rocket 3.9 04:25:24 10° NNW 04:29:31 44° W 04:33:36 10° SSW
Meteor 1-21 Rocket 4.4 04:25:08 10° N 04:31:05 85° ENE 04:37:01 10° S
Cosmos 1937 Rocket 4.2 04:26:35 10° NW 04:31:09 32° W 04:35:44 10° SSW
Cosmos 841 Rocket 3.6 04:26:34 13° SSW 04:31:14 70° WNW 04:36:32 10° NNE
Milstar 3 Cent rocket 3.8 04:28:18 14° SW 04:32:11 25° SSE 04:39:24 10° ESE
NOSS 3-4 (A) 3.9 04:26:49 10° NW 04:33:37 54° WSW 04:40:47 10° SSE
NOSS 3-4 (C) 3.9 04:26:55 10° NW 04:33:45 55° WSW 04:40:58 10° SSE
Nadezhda 4 Rocket 4.5 04:28:18 10° NNW 04:33:59 40° W 04:39:42 10° SSW
BREEZE-M DEB (TANK) 3.5 04:30:40 10° W 04:35:08 38° NNW 04:37:23 10° NE
ARIANE 5 R/B 3.7 04:32:06 10° N 04:36:25 28° WNW 04:40:22 12° WSW
ARGOS Delta rocket 4.4 04:32:02 10° NNE 04:37:14 64° E 04:42:06 10° S
Cosmos 1763 Rocket 3.8 04:35:24 13° SW 04:40:01 52° WNW 04:45:07 10° N
GPS 2-04 Rocket1 3.7 04:40:11 13° SW 04:42:55 27° S 04:46:09 10° ESE
Lacrosse 5 4.5 04:40:03 10° NW 04:43:15 16° N 04:46:26 10° NE
Cosmos 1656 4.5 04:42:41 11° SW 04:47:41 38° WNW 04:52:58 10° N
Cosmos 1408 Rocket 4.5 04:44:04 10° NNW 04:47:53 30° W 04:51:42 10° SSW
Cosmos 1766 Rocket 4.4 04:44:38 10° NNW 04:48:33 32° W 04:52:28 10° SSW
ADEOS Rocket 4.4 04:43:42 10° NNE 04:49:47 43° E 04:56:26 10° S
Thor Agena Rocket 3.5 04:45:40 10° SSE 04:50:42 79° WSW 04:55:47 10° NNW
EP 1 4.5 04:49:40 12° SW 04:51:51 53° NW 04:54:29 10° NNE
CZ-4B R/B 2.8 04:49:33 10° N 04:53:37 81° WNW 04:57:25 10° SSW
Cosmos-2242 3.5 04:49:47 10° SSW 04:53:54 42° WNW 04:58:01 10° N
Cosmos 2221 4.5 04:51:08 10° SSE 04:54:52 30° E 04:58:38 10° NNE
Cosmos 1437 3.1 04:53:56 10° NNW 04:57:10 47° W 05:00:22 10° S
Okean-O 3.4 04:52:59 10° NNE 04:57:21 54° E 05:01:41 10° S
CZ-2D R/B 3.4 04:53:47 10° N 04:58:16 26° WNW 05:02:41 10° WSW
CZ-4B DEB 4.3 04:52:59 10° NNE 04:58:34 79° WNW 05:04:04 10° SSW
Cosmos 1697 Rocket 3.4 04:55:21 10° SW 05:00:39 40° WNW 05:06:00 10° NNE
CZ-2C R/B 4.2 04:56:29 10° S 05:00:56 41° W 05:05:20 10° NNW
Cosmos 2026 Rocket 4.2 04:59:18 10° NNW 05:05:30 56° W 05:11:37 10° SSW
Cosmos 1980 Rocket 2.5 05:02:03 10° SW 05:07:35 56° WNW 05:13:10 10° NNE
